FW7086 Weather Reports


Display with metric or nautical units.
time (UTC)temp
F
wind
direction
speed
MPH
gust
MPH
rain 1hr
in
rain 24hr
in
rain mn
in
humidity
%
barometer
mb
20260905171317 82 336 2.0 3.0 0.00 0.00 0.00 76 1016.8
20260905170813 81 99 2.0 3.0 0.00 0.00 0.00 78 1017.0
20260905170308 80 70 0.0 1.0 0.00 0.00 0.00 79 1016.8
20260905165807 80 44 3.0 6.0 0.00 0.00 0.00 79 1017.1
20260905165306 79 1 3.0 4.0 0.00 0.00 0.00 81 1017.2
20260905164803 80 284 2.0 3.0 0.00 0.00 0.00 81 1017.3
20260905164258 80 69 2.0 3.0 0.00 0.00 0.00 80 1017.2
20260905163753 80 359 2.0 3.0 0.00 0.00 0.00 81 1017.3
20260905163250 80 27 2.0 3.0 0.00 0.00 0.00 81 1017.2
20260905162746 80 23 4.0 6.0 0.00 0.00 0.00 81 1017.0
20260905162245 79 279 2.0 6.0 0.00 0.00 0.00 82 1017.3
20260905161740 80 311 1.0 2.0 0.00 0.00 0.00 81 1017.2
20260905161239 80 340 1.0 2.0 0.00 0.00 0.00 81 1017.2
20260905160737 79 31 1.0 1.0 0.00 0.00 0.00 83 1017.3
20260905160237 80 345 2.0 2.0 0.00 0.00 0.00 82 1017.0
20260905155732 80 6 5.0 6.0 0.00 0.00 0.00 80 1017.0
20260905155231 81 53 2.0 3.0 0.00 0.00 0.00 80 1017.1
20260905154725 81 38 2.0 3.0 0.00 0.00 0.00 80 1016.9
20260905154222 81 78 2.0 2.0 0.00 0.00 0.00 80 1016.9
20260905153717 81 340 4.0 7.0 0.00 0.00 0.00 80 1016.9
20260905153213 81 46 1.0 2.0 0.00 0.00 0.00 79 1016.5
20260905152713 82 191 2.0 3.0 0.00 0.00 0.00 77 1016.5
20260905152207 81 100 2.0 6.0 0.00 0.00 0.00 79 1016.4
20260905151707 80 147 5.0 7.0 0.00 0.00 0.00 79 1016.4
20260905151203 80 336 3.0 3.0 0.00 0.00 0.00 79 1016.3
20260905150658 80 272 2.0 4.0 0.00 0.00 0.00 80 1016.4
20260905150156 80 131 1.0 2.0 0.00 0.00 0.00 79 1016.4
20260905145654 79 21 0.0 1.0 0.00 0.00 0.00 80 1016.5
20260905145149 79 9 3.0 4.0 0.00 0.00 0.00 82 1016.3
20260905144649 79 348 2.0 3.0 0.00 0.00 0.00 82 1016.3
20260905144149 80 37 2.0 3.0 0.00 0.00 0.00 82 1016.2
20260905143648 79 49 3.0 3.0 0.00 0.00 0.00 83 1016.4
20260905143149 78 3 2.0 3.0 0.00 0.00 0.00 85 1016.4
20260905142647 77 20 4.0 6.0 0.00 0.00 0.00 86 1016.4
20260905142147 78 72 5.0 8.0 0.00 0.00 0.00 85 1016.5
20260905141642 78 27 4.0 4.0 0.00 0.00 0.00 86 1016.1
20260905141138 78 70 2.0 3.0 0.00 0.00 0.00 87 1016.1
20260905140633 79 56 3.0 3.0 0.00 0.00 0.00 83 1015.9
20260905140133 80 69 1.0 1.0 0.00 0.00 0.00 83 1016.1
20260905135628 79 23 2.0 3.0 0.00 0.00 0.00 83 1016.2
20260905135123 78 41 2.0 2.0 0.00 0.00 0.00 86 1016.0
20260905134618 78 43 2.0 2.0 0.00 0.00 0.00 87 1016.1
20260905134116 78 343 6.0 9.0 0.00 0.00 0.00 87 1016.2
20260905133613 78 62 1.0 1.0 0.00 0.00 0.00 87 1016.4
20260905133112 77 14 1.0 1.0 0.00 0.00 0.00 89 1016.5
20260905132612 77 13 2.0 2.0 0.00 0.00 0.00 90 1016.5
20260905132107 76 352 6.0 8.0 0.00 0.00 0.00 91 1016.2
20260905131602 75 358 6.0 8.0 0.00 0.00 0.00 94 1016.2
20260905131057 75 47 2.0 2.0 0.00 0.00 0.00 95 1016.1
20260905130556 74 345 1.0 1.0 0.00 0.00 0.00 96 1016.1
20260905130051 74 19 1.0 1.0 0.00 0.00 0.00 97 1016.1
20260905125551 74 346 2.0 2.0 0.00 0.00 0.00 97 1016.0
20260905125047 74 1 3.0 4.0 0.00 0.00 0.00 97 1015.7
20260905124543 74 47 0.0 0.0 0.00 0.00 0.00 97 1015.8
20260905124039 74 36 2.0 2.0 0.00 0.00 0.00 97 1015.8
20260905123534 74 45 1.0 1.0 0.00 0.00 0.00 97 1015.5
20260905123031 74 54 0.0 2.0 0.00 0.00 0.00 96 1015.4
20260905122530 73 344 0.0 0.0 0.00 0.00 0.00 96 1015.4
20260905122025 73 349 0.0 1.0 0.00 0.00 0.00 96 1015.5
20260905121520 73 33 1.0 1.0 0.00 0.00 0.00 96 1015.4
20260905121015 73 90 1.0 2.0 0.00 0.00 0.00 96 1015.5
20260905120514 73 23 2.0 3.0 0.00 0.00 0.00 96 1015.6
20260905120011 73 14 1.0 2.0 0.00 0.00 0.00 96 1015.4
20260905115509 74 33 1.0 1.0 0.00 0.00 0.00 96 1015.1
20260905115004 74 337 3.0 3.0 0.00 0.00 0.00 96 1015.0
20260905114503 74 46 1.0 1.0 0.00 0.00 0.00 96 1014.9
20260905114002 74 70 0.0 0.0 0.00 0.00 0.00 96 1014.9
20260905113458 74 319 5.0 6.0 0.00 0.00 0.00 96 1014.8
20260905112953 74 20 0.0 0.0 0.00 0.00 0.00 96 1014.7
20260905112448 74 40 0.0 0.0 0.00 0.00 0.00 96 1014.6
20260905111943 74 51 0.0 0.0 0.00 0.00 0.00 96 1014.4
20260905111437 74 26 0.0 0.0 0.00 0.00 0.00 96 1014.4
20260905110932 74 4 0.0 0.0 0.00 0.00 0.00 95 1014.4
20260905110426 74 53 0.0 0.0 0.00 0.00 0.00 95 1014.4
20260905105926 75 85 2.0 3.0 0.00 0.00 0.00 95 1014.2
20260905105426 75 25 0.0 0.0 0.00 0.00 0.00 94 1014.6
20260905104926 75 61 0.0 0.0 0.00 0.00 0.00 94 1014.6
20260905104422 75 44 0.0 0.0 0.00 0.00 0.00 94 1014.6
20260905103921 75 337 1.0 2.0 0.00 0.00 0.00 94 1014.6
20260905103417 76 30 1.0 1.0 0.00 0.00 0.00 94 1014.5
20260905102913 76 2 2.0 3.0 0.00 0.00 0.00 94 1014.7
20260905102410 76 19 1.0 1.0 0.00 0.00 0.00 94 1014.6
20260905101909 77 28 1.0 2.0 0.00 0.00 0.00 94 1014.6
20260905101407 77 45 1.0 2.0 0.00 0.00 0.00 93 1014.6
20260905100902 77 36 1.0 2.0 0.00 0.00 0.00 93 1014.4
20260905100358 77 54 0.0 0.0 0.00 0.00 0.00 93 1014.3
20260905095857 77 25 2.0 2.0 0.00 0.00 0.00 93 1014.5
20260905095352 77 39 1.0 2.0 0.00 0.00 0.00 93 1014.4
20260905094847 77 6 0.0 0.0 0.00 0.00 0.00 93 1014.3
20260905094342 77 23 0.0 0.0 0.00 0.00 0.00 93 1014.1
20260905093841 77 23 0.0 0.0 0.00 0.00 0.00 93 1014.1
20260905093337 77 44 0.0 0.0 0.00 0.00 0.00 93 1014.3
20260905092833 77 44 0.0 0.0 0.00 0.00 0.00 93 1014.0
20260905092333 77 71 0.0 0.0 0.00 0.00 0.00 93 1014.0
20260905091828 77 65 0.0 0.0 0.00 0.00 0.00 93 1014.1
20260905091327 77 54 0.0 0.0 0.00 0.00 0.00 92 1014.4
20260905090826 77 60 0.0 0.0 0.00 0.00 0.00 92 1014.1
20260905090322 78 42 0.0 0.0 0.00 0.00 0.00 91 1014.3
20260905085821 78 49 0.0 0.0 0.00 0.00 0.00 91 1014.2
20260905085316 78 41 0.0 0.0 0.00 0.00 0.00 91 1014.2
20260905084812 78 24 0.0 0.0 0.00 0.00 0.00 91 1014.2
20260905084311 78 24 0.0 0.0 0.00 0.00 0.00 91 1014.1
20260905083806 78 50 0.0 0.0 0.00 0.00 0.00 91 1014.1
20260905083302 78 52 0.0 0.0 0.00 0.00 0.00 91 1014.1
20260905082757 78 31 0.0 0.0 0.00 0.00 0.00 90 1014.2
20260905082254 78 33 0.0 0.0 0.00 0.00 0.00 90 1014.2
20260905081754 78 33 0.0 0.0 0.00 0.00 0.00 90 1014.2
20260905081249 78 78 0.0 0.0 0.00 0.00 0.00 90 1014.1
20260905080748 78 48 0.0 0.0 0.00 0.00 0.00 91 1014.1
20260905080248 77 28 0.0 0.0 0.00 0.00 0.00 91 1013.9
20260905075747 78 348 0.0 0.0 0.00 0.00 0.00 91 1014.2
20260905075246 78 348 0.0 0.0 0.00 0.00 0.00 90 1014.0
20260905074746 78 348 0.0 0.0 0.00 0.00 0.00 90 1014.0
20260905074242 78 345 0.0 0.0 0.00 0.00 0.00 90 1014.0
20260905073737 78 339 0.0 0.0 0.00 0.00 0.00 90 1014.2
20260905073232 78 339 0.0 0.0 0.00 0.00 0.00 90 1013.9
20260905072731 78 339 0.0 0.0 0.00 0.00 0.00 90 1014.2
20260905072227 78 339 0.0 0.0 0.00 0.00 0.00 89 1014.1
20260905071724 78 339 0.0 0.0 0.00 0.00 0.00 89 1014.2
20260905071220 78 223 0.0 0.0 0.00 0.00 0.00 89 1014.1
20260905070714 78 103 0.0 0.0 0.00 0.00 0.00 89 1014.1
20260905070210 78 29 0.0 0.0 0.00 0.00 0.00 89 1014.1
20260905065709 78 28 0.0 0.0 0.00 0.00 0.00 89 1014.1
20260905065203 78 68 0.0 0.0 0.00 0.00 0.00 88 1014.3
20260905064658 78 102 0.0 0.0 0.00 0.00 0.00 88 1014.2
20260905064154 78 78 0.0 0.0 0.00 0.00 0.00 88 1014.4
20260905063652 78 66 0.0 0.0 0.00 0.00 0.00 88 1014.5
20260905063149 79 58 0.0 0.0 0.00 0.00 0.00 88 1014.6
20260905062644 79 58 0.0 0.0 0.00 0.00 0.00 87 1014.6
20260905062143 79 23 0.0 0.0 0.00 0.00 0.00 87 1014.5
20260905061638 79 39 0.0 0.0 0.00 0.00 0.00 87 1014.6
20260905061138 79 22 0.0 0.0 0.00 0.00 0.00 87 1014.5
20260905060633 79 24 0.0 0.0 0.00 0.00 0.00 87 1014.6
20260905060130 79 15 0.0 0.0 0.00 0.00 0.00 87 1014.6
20260905055628 79 51 0.0 0.0 0.00 0.00 0.00 88 1014.5
20260905055124 79 52 0.0 0.0 0.00 0.00 0.00 87 1014.4
20260905054619 79 65 0.0 0.0 0.00 0.00 0.00 87 1014.5
20260905054115 79 24 0.0 0.0 0.00 0.00 0.00 87 1014.6
20260905053614 79 8 0.0 0.0 0.00 0.00 0.00 87 1014.5
20260905053109 79 32 0.0 0.0 0.00 0.00 0.00 87 1014.5
20260905052609 79 348 0.0 0.0 0.00 0.00 0.00 87 1014.7
20260905052103 79 38 0.0 0.0 0.00 0.00 0.00 86 1014.5
20260905051559 79 2 0.0 0.0 0.00 0.00 0.00 86 1014.5
20260905051056 79 52 0.0 0.0 0.00 0.00 0.00 86 1014.6
20260905050552 79 17 0.0 0.0 0.00 0.00 0.00 86 1014.6
20260905050049 80 37 0.0 0.0 0.00 0.00 0.00 85 1014.4
20260905045548 80 74 0.0 0.0 0.00 0.00 0.00 85 1014.5
20260905045043 80 355 0.0 0.0 0.00 0.00 0.00 85 1014.3
20260905044543 80 56 0.0 0.0 0.00 0.00 0.00 84 1014.4
20260905044038 80 65 0.0 0.0 0.00 0.00 0.00 85 1014.7
20260905043537 80 71 0.0 0.0 0.00 0.00 0.00 85 1014.6
20260905043032 80 56 0.0 0.0 0.00 0.00 0.00 85 1014.7
20260905042531 80 119 2.0 3.0 0.00 0.00 0.00 85 1014.7
20260905042027 80 66 2.0 3.0 0.00 0.00 0.00 85 1014.8
20260905041522 80 29 0.0 0.0 0.00 0.00 0.00 85 1014.9
20260905041018 80 48 0.0 1.0 0.00 0.00 0.00 84 1014.9
20260905040517 80 68 1.0 2.0 0.00 0.00 0.00 84 1014.8
20260905040015 80 63 0.0 1.0 0.00 0.00 0.00 84 1014.6
20260905035511 80 55 2.0 2.0 0.00 0.00 0.00 84 1014.7
20260905035008 80 358 1.0 1.0 0.00 0.00 0.00 83 1014.6
20260905034504 81 69 2.0 2.0 0.00 0.00 0.00 82 1014.4
20260905034003 82 23 3.0 3.0 0.00 0.00 0.00 81 1014.7
20260905033503 82 17 2.0 3.0 0.00 0.00 0.00 80 1014.9
20260905032958 82 9 1.0 2.0 0.00 0.00 0.00 78 1014.6
20260905032453 82 5 0.0 0.0 0.00 0.00 0.00 78 1014.8
20260905031948 82 25 0.0 0.0 0.00 0.00 0.00 78 1014.8
20260905031444 82 23 1.0 1.0 0.00 0.00 0.00 78 1014.8
20260905030939 83 60 0.0 0.0 0.00 0.00 0.00 77 1015.0
20260905030434 83 10 1.0 1.0 0.00 0.00 0.00 77 1014.9
20260905025933 83 0 0.0 0.0 0.00 0.00 0.00 76 1015.1
20260905025428 83 6 1.0 1.0 0.00 0.00 0.00 76 1015.3
20260905024925 84 59 0.0 0.0 0.00 0.00 0.00 75 1015.3
20260905024425 84 53 0.0 0.0 0.00 0.00 0.00 75 1015.0
20260905023921 84 54 0.0 0.0 0.00 0.00 0.00 75 1014.9
20260905023416 84 54 0.0 0.0 0.00 0.00 0.00 75 1014.9
20260905022915 85 85 1.0 1.0 0.00 0.00 0.00 75 1015.0
20260905022411 86 60 0.0 0.0 0.00 0.00 0.00 74 1014.8
20260905021906 86 79 1.0 2.0 0.00 0.00 0.00 74 1014.9
20260905021406 87 7 1.0 1.0 0.00 0.00 0.00 73 1014.8
20260905020901 87 17 0.0 0.0 0.00 0.00 0.00 73 1014.9
20260905020401 87 46 0.0 0.0 0.00 0.00 0.00 74 1014.9
20260905015901 87 45 0.0 0.0 0.00 0.00 0.00 73 1014.8
20260905015359 87 23 0.0 0.0 0.00 0.00 0.00 72 1014.7
20260905014859 87 266 0.0 0.0 0.00 0.00 0.00 72 1014.6
20260905014354 88 31 0.0 0.0 0.00 0.00 0.00 72 1014.5
20260905013855 88 16 0.0 0.0 0.00 0.00 0.00 72 1014.4
20260905013352 88 38 0.0 0.0 0.00 0.00 0.00 72 1014.5
20260905012852 88 7 0.0 0.0 0.00 0.00 0.00 72 1014.1
20260905012347 88 135 0.0 0.0 0.00 0.00 0.00 72 1014.0
20260905011844 88 70 0.0 0.0 0.00 0.00 0.00 72 1014.4
20260905011339 88 178 0.0 0.0 0.00 0.00 0.00 71 1014.1
20260905010835 88 78 0.0 0.0 0.00 0.00 0.00 71 1014.1
20260905010329 88 48 0.0 0.0 0.00 0.00 0.00 71 1013.7
20260905005826 88 152 0.0 0.0 0.00 0.00 0.00 71 1013.8
20260905005316 89 155 0.0 0.0 0.00 0.00 0.00 70 1013.8
20260905004816 89 178 0.0 1.0 0.00 0.00 0.00 70 1013.9
20260905004310 89 118 1.0 1.0 0.00 0.00 0.00 70 1013.8
20260905003806 89 179 1.0 2.0 0.00 0.00 0.00 69 1014.1
20260905003302 89 224 1.0 1.0 0.00 0.00 0.00 69 1013.9
20260905002757 89 257 0.0 1.0 0.00 0.00 0.00 69 1013.7
20260905002257 89 0 1.0 1.0 0.00 0.00 0.00 68 1013.5
20260905001752 90 139 0.0 1.0 0.00 0.00 0.00 67 1013.5
20260905001251 90 131 0.0 1.0 0.00 0.00 0.00 67 1013.4
20260905000747 90 265 2.0 2.0 0.00 0.00 0.00 66 1013.6
20260905000243 90 259 2.0 3.0 0.00 0.00 0.00 65 1013.6
20260904235738 90 322 3.0 3.0 0.00 0.00 0.00 65 1013.5
20260904235238 90 159 2.0 3.0 0.00 0.00 0.00 65 1013.6
20260904234732 91 279 2.0 3.0 0.00 0.00 0.00 65 1013.4
20260904234228 91 131 3.0 3.0 0.00 0.00 0.00 64 1013.4
20260904233723 91 155 2.0 3.0 0.00 0.00 0.00 63 1013.4
20260904233220 92 181 2.0 3.0 0.00 0.00 0.00 63 1013.5
20260904232716 92 230 4.0 6.0 0.00 0.00 0.00 62 1013.6
20260904232212 92 193 4.0 6.0 0.00 0.00 0.00 62 1013.4
20260904231707 93 155 4.0 7.0 0.00 0.00 0.00 60 1013.6
20260904231203 93 347 2.0 3.0 0.00 0.00 0.00 60 1013.9
20260904230702 93 70 3.0 3.0 0.00 0.00 0.00 59 1013.8
20260904230157 93 129 1.0 1.0 0.00 0.00 0.00 59 1013.7
20260904225655 93 218 2.0 2.0 0.00 0.00 0.00 59 1013.7
20260904225151 93 298 4.0 7.0 0.00 0.00 0.00 58 1013.6
20260904224645 93 207 1.0 2.0 0.00 0.00 0.00 57 1013.6
20260904224145 93 266 1.0 1.0 0.00 0.00 0.00 57 1013.6
20260904223644 93 162 2.0 2.0 0.00 0.00 0.00 58 1013.7
20260904223139 93 131 3.0 4.0 0.00 0.00 0.00 58 1013.8
20260904222635 93 192 4.0 6.0 0.00 0.00 0.00 58 1013.7
20260904222131 93 199 3.0 3.0 0.00 0.00 0.00 57 1013.7
20260904221631 93 189 1.0 2.0 0.00 0.00 0.00 57 1013.7
20260904221131 94 24 1.0 2.0 0.00 0.00 0.00 56 1013.8
20260904220626 95 336 3.0 4.0 0.00 0.00 0.00 56 1013.6
20260904220121 94 179 4.0 6.0 0.00 0.00 0.00 56 1013.7
20260904215615 94 127 2.0 2.0 0.00 0.00 0.00 56 1013.6
20260904215111 94 183 3.0 3.0 0.00 0.00 0.00 56 1013.6
20260904214606 94 173 3.0 4.0 0.00 0.00 0.00 56 1013.4
20260904214102 93 171 2.0 2.0 0.00 0.00 0.00 56 1013.7
20260904213600 93 203 4.0 6.0 0.00 0.00 0.00 56 1013.6
20260904213057 94 196 4.0 4.0 0.00 0.00 0.00 55 1013.7
20260904212556 94 158 2.0 2.0 0.00 0.00 0.00 55 1013.7
20260904212051 93 164 4.0 6.0 0.00 0.00 0.00 56 1013.3
20260904211551 93 175 6.0 8.0 0.00 0.00 0.00 58 1013.4
20260904211046 94 188 8.0 9.0 0.00 0.00 0.00 57 1013.6
20260904210545 93 214 5.0 9.0 0.00 0.00 0.00 57 1013.6
20260904210042 94 219 4.0 6.0 0.00 0.00 0.00 56 1013.5
20260904205542 94 210 2.0 3.0 0.00 0.00 0.00 56 1013.5
20260904205039 93 99 2.0 3.0 0.00 0.00 0.00 58 1013.7
20260904204535 93 187 4.0 6.0 0.00 0.00 0.00 57 1013.6
20260904204030 94 192 3.0 3.0 0.00 0.00 0.00 56 1013.9
20260904203526 93 178 6.0 7.0 0.00 0.00 0.00 56 1014.1
20260904203022 93 183 4.0 4.0 0.00 0.00 0.00 57 1014.1
20260904202518 93 227 6.0 9.0 0.00 0.00 0.00 57 1014.2
20260904202014 93 182 2.0 3.0 0.00 0.00 0.00 58 1014.3
20260904201509 93 135 3.0 4.0 0.00 0.00 0.00 58 1014.1
20260904201004 92 166 2.0 2.0 0.00 0.00 0.00 58 1014.2
20260904200503 93 179 2.0 2.0 0.00 0.00 0.00 57 1014.2
20260904195958 93 173 4.0 6.0 0.00 0.00 0.00 56 1014.5
20260904195456 93 157 7.0 8.0 0.00 0.00 0.00 55 1014.5
20260904194955 92 169 4.0 4.0 0.00 0.00 0.00 55 1014.5
20260904194450 92 204 6.0 9.0 0.00 0.00 0.00 56 1014.6
20260904193945 92 136 3.0 4.0 0.00 0.00 0.00 57 1014.9
20260904193441 92 201 7.0 9.0 0.00 0.00 0.00 56 1014.9
20260904192936 91 173 6.0 9.0 0.00 0.00 0.00 57 1014.7
20260904192431 92 166 8.0 10.0 0.00 0.00 0.00 56 1014.9
20260904191927 92 187 5.0 7.0 0.00 0.00 0.00 55 1014.9
20260904191424 91 186 2.0 2.0 0.00 0.00 0.00 57 1015.0
20260904190921 91 119 0.0 0.0 0.00 0.00 0.00 57 1015.2
20260904190421 91 181 2.0 3.0 0.00 0.00 0.00 58 1015.2
20260904185917 91 133 1.0 3.0 0.00 0.00 0.00 57 1015.4
20260904185413 90 188 4.0 4.0 0.00 0.00 0.00 56 1015.5
20260904184912 89 66 1.0 1.0 0.00 0.00 0.00 59 1015.6
20260904184408 88 104 0.0 0.0 0.00 0.00 0.00 60 1015.5
20260904183903 86 83 1.0 2.0 0.00 0.00 0.00 62 1015.7
20260904183358 86 46 1.0 1.0 0.00 0.00 0.00 63 1016.0
20260904182854 86 78 0.0 1.0 0.00 0.00 0.00 64 1015.8
20260904182354 85 93 1.0 2.0 0.00 0.00 0.00 65 1015.7
20260904181849 85 59 3.0 6.0 0.00 0.00 0.00 64 1015.7
20260904181344 85 149 3.0 3.0 0.00 0.00 0.00 65 1015.9
20260904180839 84 139 1.0 2.0 0.00 0.00 0.00 67 1016.1
20260904180334 84 65 2.0 3.0 0.00 0.00 0.00 67 1016.1
20260904175833 86 257 2.0 2.0 0.00 0.00 0.00 65 1016.5
20260904175334 87 113 2.0 4.0 0.00 0.00 0.00 63 1016.8
20260904174832 85 132 0.0 1.0 0.00 0.00 0.00 66 1016.8
20260904174328 85 123 2.0 4.0 0.00 0.00 0.00 67 1017.0
20260904173824 86 188 0.0 0.0 0.00 0.00 0.00 67 1017.2
20260904173320 84 129 3.0 4.0 0.00 0.00 0.00 68 1017.4
20260904172815 85 44 2.0 3.0 0.00 0.00 0.00 68 1018.1
20260904172314 84 25 2.0 2.0 0.00 0.00 0.00 69 1018.3
20260904171809 84 82 2.0 2.0 0.00 0.00 0.00 68 1018.3